Location: Lake Runnemede Observatory
(43.4843°N, 72.3851°W)
Time: 04:48:15
(UTC-04:00)

Amateur Radio Satellites - All Passes

Search period start: 23 May 2015 04:18
Search period end: 24 May 2015 04:18
Location: Lake Runnemede Observatory, 43.4843°N, 72.3851°W

Satellite Date Start Highest point End Downlink Frequencies (MHz)
Time Altitude Azimuth
ISS 23 May 04:23:29 04:25:57 19° 357° (N) 04:28:24 145.825
AO-7 23 May 04:26:43 04:34:37 45° 99° (E) 04:42:35 29.400- 29.500
SO-50 23 May 04:36:59 04:41:39 74° 121° (ESE) 04:46:30 436.795
Cosmos 2499 23 May 04:43:55 04:48:45 19° 278° (W) 04:53:16 435.465 / 435.565
HORYU 2 23 May 04:46:20 04:50:49 87° 287° (WNW) 04:55:14 437.375
ITAMSAT 1 23 May 04:48:10 04:51:59 20° 297° (WNW) 04:55:40 435.822/435.867
BEESAT 3 23 May 04:52:05 04:55:41 30° 244° (WSW) 04:59:12 437.485
CUBESAT XI-V 23 May 04:52:53 04:54:35 12° 61° (ENE) 04:56:30 437.345
AIST 2 23 May 04:55:00 04:59:15 71° 54° (NE) 05:03:24 435.215
Gurwin Techsat 1B 23 May 04:59:43 05:03:17 18° 299° (WNW) 05:06:40 435.225
MOZHAYETS 4 23 May 05:00:51 05:05:20 53° 261° (W) 05:09:50
JAS-2 23 May 05:23:05 05:28:11 53° 289° (WNW) 05:33:14 435.910
PHONESAT 2.4 23 May 05:29:20 05:32:18 27° 160° (SSE) 05:35:18 2401.200-2431.200
M-CUBED/EXP-1 PRIME 23 May 05:33:20 05:35:14 13° 59° (ENE) 05:37:15 437.505
BEESAT 2 23 May 05:35:53 05:38:07 14° 249° (WSW) 05:40:09 435.950
AUBIESAT-1 23 May 05:45:22 05:47:41 15° 61° (ENE) 05:50:05 437.475
Cosmos 2491 23 May 05:53:46 06:01:12 30° 65° (ENE) 06:08:47 435.465 / 435.565
VERMONT LUNAR 23 May 05:54:03 05:57:09 48° 177° (S) 06:00:16 437.305
STRAND 1 23 May 05:58:06 06:02:15 26° 65° (ENE) 06:06:29 437.568
ISS 23 May 06:00:13 06:03:05 27° 17° (NNE) 06:05:58 145.825
SO-50 23 May 06:19:10 06:22:46 20° 323° (NW) 06:26:22 436.795
AO-7 23 May 06:19:38 06:27:28 45° 298° (WNW) 06:35:13 29.400- 29.500
HORYU 2 23 May 06:26:16 06:26:48 10° 300° (WNW) 06:27:06 437.375
CUBESAT XI-V 23 May 06:26:50 06:31:25 82° 256° (WSW) 06:36:04 437.345
CUTE-I 23 May 06:26:57 06:31:32 29° 94° (E) 06:36:11 437.470
PRISM 23 May 06:32:46 06:36:46 57° 73° (ENE) 06:40:48 437.425
AIST 2 23 May 06:35:31 06:37:18 12° 250° (WSW) 06:38:53 435.215
Cubesat XI-IV 23 May 06:45:51 06:50:56 42° 98° (E) 06:56:02 437.490
YUBILEINY 23 May 06:50:00 06:56:34 25° 82° (E) 07:03:25 435.215
M-CUBED/EXP-1 PRIME 23 May 07:05:22 07:09:44 69° 253° (WSW) 07:13:46 437.505
PHONESAT 2.4 23 May 07:06:44 07:10:06 51° 177° (S) 07:13:29 2401.200-2431.200
AUBIESAT-1 23 May 07:17:55 07:22:11 57° 254° (WSW) 07:26:08 437.475
VERMONT LUNAR 23 May 07:31:08 07:34:07 36° 193° (SSW) 07:37:06 437.305
ISS 23 May 07:36:28 07:39:43 64° 216° (SW) 07:42:57 145.825
STRAND 1 23 May 07:36:30 07:41:17 41° 262° (W) 07:46:05 437.568
Cosmos 2491 23 May 07:50:05 07:58:50 65° 267° (W) 08:07:27 435.465 / 435.565
HO-68 23 May 07:50:39 07:51:59 11° 82° (E) 07:53:56 435.675
AIST 1 23 May 08:03:22 08:07:35 46° 77° (ENE) 08:11:49
CUTE-I 23 May 08:06:45 08:11:44 39° 292° (WNW) 08:16:40 437.470
PRISM 23 May 08:10:54 08:12:40 12° 271° (W) 08:14:14 437.425
AO-7 23 May 08:15:40 08:18:18 11° 320° (NW) 08:20:30 29.400- 29.500
Cubesat XI-IV 23 May 08:26:21 08:30:52 28° 295° (WNW) 08:35:18 437.490
BRITE-PL 23 May 08:31:59 08:37:28 47° 97° (E) 08:42:48 437.365/2234.400
DOVE 4 23 May 08:41:40 08:45:48 24° 91° (E) 08:49:52 437.250
COMPASS 1 23 May 08:43:04 08:44:47 13° 88° (E) 08:46:43 437.405
YUBILEINY 23 May 08:43:54 08:52:41 72° 281° (W) 09:01:27 435.215
PHONESAT 2.4 23 May 08:44:44 08:47:59 38° 194° (SSW) 08:51:15 2401.200-2431.200
RS-15 23 May 08:47:32 08:56:42 35° 107° (ESE) 09:06:19 29.354- 29.394
CINEMA 3 23 May 08:52:49 08:55:12 14° 86° (E) 08:57:46 145.822/145.860
GOMX 1 23 May 08:56:54 09:02:13 50° 98° (E) 09:07:19 467.674
Cosmos 2504 23 May 08:57:09 09:01:05 15° 79° (E) 09:05:26 435.465 / 435.565
AAUSAT CUBESAT 2 23 May 08:58:19 09:00:50 16° 90° (E) 09:03:31 437.432
TIGRISAT 23 May 09:07:38 09:09:30 13° 61° (ENE) 09:11:35 435.000
VERMONT LUNAR 23 May 09:09:19 09:10:49 13° 208° (SSW) 09:12:16 437.305
Oscar 11 23 May 09:20:19 09:22:19 13° 88° (E) 09:24:33 145.826/435.025
CANX-2 23 May 09:22:52 09:27:04 59° 100° (E) 09:31:12 2200.000
PCSat 23 May 09:23:53 09:27:30 18° 38° (NE) 09:31:14 145.827
UNISAT 6 23 May 09:24:39 09:27:50 19° 65° (ENE) 09:31:09 437.425
CUTE 1.7 + AOD 2 23 May 09:27:07 09:31:17 59° 100° (E) 09:35:26 437.475
UWE-3 23 May 09:33:26 09:35:39 14° 88° (E) 09:38:01 435.000/436.395/437.385
HO-68 23 May 09:34:09 09:41:17 67° 103° (ESE) 09:48:24 435.675
POPSAT HIP 1 23 May 09:36:57 09:37:30 10° 61° (ENE) 09:38:17 437.405
DUCHIFAT 1 23 May 09:41:42 09:42:59 11° 62° (ENE) 09:44:29 145.980
AIST 1 23 May 09:42:09 09:44:54 16° 273° (W) 09:47:28
Cosmos 2491 23 May 09:50:54 09:54:06 12° 286° (WNW) 09:56:36 435.465 / 435.565
DELFI C3 23 May 09:53:58 09:57:03 22° 93° (E) 10:00:13 145.870
FUNcube-1 23 May 09:54:34 09:57:29 18° 90° (E) 10:00:28 145.935
SEEDS 23 May 09:56:33 10:00:45 78° 285° (WNW) 10:04:55 437.485
ANTELSAT 23 May 10:06:19 10:10:49 46° 72° (ENE) 10:15:18 437.575/2403.000
BRITE-PL 23 May 10:10:54 10:15:43 28° 294° (WNW) 10:20:21 437.365/2234.400
CUBEBUG 2 23 May 10:11:52 10:16:13 44° 97° (E) 10:20:25 437.445
COMPASS 1 23 May 10:16:49 10:20:54 57° 286° (WNW) 10:24:57 437.405
POLYITAN 1 23 May 10:17:39 10:21:16 28° 68° (ENE) 10:24:59 437.675
QB50P1 23 May 10:18:07 10:21:43 27° 68° (ENE) 10:25:23 145.935-145.965
DOVE 4 23 May 10:18:48 10:23:46 44° 290° (WNW) 10:28:31 437.250
BUGSAT 1 23 May 10:22:15 10:25:17 20° 66° (ENE) 10:28:26 437.445
PHONESAT 2.4 23 May 10:23:41 10:25:36 14° 209° (SSW) 10:27:27 2401.200-2431.200
CINEMA 3 23 May 10:28:11 10:33:01 66° 287° (WNW) 10:37:36 145.822/145.860
ZACube-1 23 May 10:32:20 10:36:35 45° 98° (E) 10:40:42 437.345
AAUSAT CUBESAT 2 23 May 10:32:46 10:36:44 44° 288° (WNW) 10:40:39 437.432
GOMX 1 23 May 10:35:37 10:39:59 24° 295° (WNW) 10:44:08 467.674
TIGRISAT 23 May 10:40:56 10:45:40 83° 257° (WSW) 10:50:23 435.000
UKube-1 23 May 10:43:27 10:47:08 27° 95° (E) 10:50:51 .
VELOX 1 23 May 10:44:13 10:46:47 15° 90° (E) 10:49:31 145.980
Cosmos 2504 23 May 10:45:02 10:53:29 79° 96° (E) 11:01:24 435.465 / 435.565
DX 1 23 May 10:45:42 10:49:36 30° 96° (E) 10:53:31 434.975-435.025
YUBILEINY 23 May 10:46:20 10:51:31 16° 306° (NW) 10:56:11 435.215
NANOSAT C BR1 23 May 10:50:23 10:54:34 59° 74° (ENE) 10:58:49 145.865
Oscar 11 23 May 10:54:43 10:58:57 57° 286° (WNW) 11:03:10 145.826/435.025
QB50P2 23 May 10:55:08 10:59:23 69° 75° (ENE) 11:03:41 145.880/145.840
CUBEBUG 1 23 May 10:56:43 10:57:01 10° 86° (E) 10:57:37 437.445
RS-15 23 May 10:57:26 11:08:20 71° 310° (NW) 11:19:35 29.354- 29.394
UNISAT 6 23 May 10:59:40 11:04:16 52° 261° (W) 11:08:51 437.425
CANX-2 23 May 11:00:19 11:02:33 14° 296° (WNW) 11:04:38 2200.000
HUMSAT D 23 May 11:01:19 11:05:20 43° 98° (E) 11:09:17 437.325/437.525
CUTE 1.7 + AOD 2 23 May 11:04:33 11:06:47 14° 296° (WNW) 11:08:50 437.475
PCSat 23 May 11:06:18 11:11:47 88° 59° (ENE) 11:17:12 145.827
UWE-3 23 May 11:08:16 11:12:41 58° 287° (WNW) 11:16:55 435.000/436.395/437.385
POPSAT HIP 1 23 May 11:08:28 11:12:46 87° 256° (WSW) 11:17:06 437.405
AISAT 23 May 11:13:12 11:17:13 32° 96° (E) 11:21:15 437.250
DUCHIFAT 1 23 May 11:13:59 11:18:14 78° 257° (WSW) 11:22:33 145.980
50 SAT 23 May 11:21:28 11:25:09 40° 98° (E) 11:28:49 437.505
HO-68 23 May 11:22:43 11:28:32 27° 302° (WNW) 11:34:09 435.675
SO-50 23 May 11:27:45 11:31:09 18° 35° (NE) 11:34:37 436.795
DELFI C3 23 May 11:28:40 11:32:14 31° 290° (WNW) 11:35:45 145.870
FUNcube-1 23 May 11:29:55 11:34:06 43° 288° (WNW) 11:38:09 145.935
ANTELSAT 23 May 11:44:21 11:47:50 20° 269° (W) 11:51:12 437.575/2403.000
CUSAT 1 23 May 11:47:43 11:49:31 11° 75° (ENE) 11:51:58 437.405
CUBEBUG 2 23 May 11:49:16 11:52:36 20° 295° (WNW) 11:55:46 437.445
SPROUT 23 May 11:51:09 11:52:15 11° 87° (E) 11:53:37 437.525
POLYITAN 1 23 May 11:53:24 11:57:09 28° 265° (W) 12:00:53 437.675
QB50P1 23 May 11:53:48 11:57:31 28° 265° (W) 12:01:14 145.935-145.965
BUGSAT 1 23 May 11:56:41 12:00:32 36° 263° (W) 12:04:25 437.445
ESTCUBE 1 23 May 12:05:30 12:10:01 65° 101° (E) 12:14:32 437.505/2401.250
ZACube-1 23 May 12:09:32 12:12:36 18° 295° (WNW) 12:15:29 437.345
VELOX 1 23 May 12:19:20 12:23:44 54° 287° (WNW) 12:28:06 145.980
UKube-1 23 May 12:19:26 12:23:16 29° 292° (WNW) 12:27:00 .
DX 1 23 May 12:22:03 12:25:46 27° 293° (WNW) 12:29:25 434.975-435.025
DANDE 23 May 12:27:26 12:31:50 19° 79° (ENE) 12:37:08 436.750
NANOSAT C BR1 23 May 12:28:46 12:30:52 13° 272° (W) 12:32:46 145.865
TISAT 1 23 May 12:29:11 12:32:25 21° 93° (E) 12:35:43 437.305
CUBEBUG 1 23 May 12:29:35 12:34:03 80° 285° (WNW) 12:38:29 437.445
QB50P2 23 May 12:34:27 12:35:51 11° 273° (W) 12:37:00 145.880/145.840
HUMSAT D 23 May 12:37:54 12:40:47 18° 295° (WNW) 12:43:32 437.325/437.525
Cosmos 2504 23 May 12:41:23 12:47:49 23° 296° (WNW) 12:53:40 435.465 / 435.565
Oscar 19 23 May 12:43:15 12:47:57 37° 68° (ENE) 12:52:44 437.125/150
AISAT 23 May 12:49:54 12:53:44 27° 292° (WNW) 12:57:28 437.250
ITAMSAT 1 23 May 12:50:36 12:53:11 14° 59° (ENE) 12:55:59 435.822/435.867
PCSat 23 May 12:51:55 12:54:31 13° 256° (WSW) 12:56:50 145.827
50 SAT 23 May 12:57:01 12:59:36 17° 294° (WNW) 13:02:02 437.505
Gurwin Techsat 1B 23 May 13:03:18 13:06:38 18° 61° (ENE) 13:10:10 435.225
SO-50 23 May 13:07:26 13:12:26 89° 55° (NE) 13:17:21 436.795
GONETS M04 23 May 13:12:16 13:20:28 46° 89° (E) 13:28:47
RS-15 23 May 13:13:51 13:23:15 30° 340° (NNW) 13:32:49 29.354- 29.394
SWISSCUBE 23 May 13:17:27 13:19:33 13° 88° (E) 13:21:54 437.505
CUSAT 1 23 May 13:23:42 13:30:31 60° 94° (E) 13:38:36 437.405
SPROUT 23 May 13:24:35 13:28:56 71° 285° (WNW) 13:33:13 437.525
AO-7 23 May 13:38:47 13:43:27 17° 46° (NE) 13:48:29 29.400- 29.500
ESTCUBE 1 23 May 13:43:52 13:46:25 15° 297° (WNW) 13:48:48 437.505/2401.250
JAS-2 23 May 13:54:38 13:57:15 13° 58° (ENE) 14:00:05 435.910
TISAT 1 23 May 14:04:23 14:08:20 36° 290° (WNW) 14:12:13 437.305
DANDE 23 May 14:07:03 14:13:49 90° 104° (ESE) 14:22:11 436.750
HORYU 2 23 May 14:12:23 14:13:53 12° 61° (ENE) 14:15:37 437.375
Oscar 19 23 May 14:22:51 14:27:23 29° 266° (W) 14:31:53 437.125/150
ITAMSAT 1 23 May 14:26:53 14:32:04 84° 256° (WSW) 14:37:17 435.822/435.867
ITUPSAT 1 23 May 14:35:00 14:39:48 70° 102° (ESE) 14:44:34 437.325
Gurwin Techsat 1B 23 May 14:40:50 14:46:07 70° 258° (WSW) 14:51:27 435.225
BEESAT 23 May 14:45:22 14:50:11 90° 119° (ESE) 14:54:57 436.000
SO-50 23 May 14:50:17 14:52:20 12° 252° (WSW) 14:54:08 436.795
SWISSCUBE 23 May 14:53:14 14:58:00 71° 287° (WNW) 15:02:46 437.505
CUSAT 1 23 May 15:07:21 15:13:50 32° 296° (WNW) 15:20:59 437.405
GONETS M04 23 May 15:09:07 15:17:26 42° 289° (WNW) 15:25:42
Cosmos 2499 23 May 15:26:04 15:34:07 60° 93° (E) 15:41:38 435.465 / 435.565
AO-7 23 May 15:26:43 15:34:52 67° 67° (ENE) 15:43:07 29.400- 29.500
RS-15 23 May 15:31:16 15:40:22 27° 14° (NNE) 15:49:55 29.354- 29.394
STARS 23 May 15:32:29 15:36:28 32° 96° (E) 15:40:28 437.465
JAS-2 23 May 15:34:48 15:41:40 72° 74° (ENE) 15:47:44 435.910
HORYU 2 23 May 15:45:27 15:49:57 82° 255° (WSW) 15:54:29 437.375
DANDE 23 May 15:53:01 15:58:32 21° 304° (NW) 16:04:23 436.750
KKS-1 23 May 15:54:25 15:58:56 89° 103° (ESE) 16:03:25 437.445
ITAMSAT 1 23 May 16:12:06 16:12:30 10° 275° (W) 16:12:32 435.822/435.867
ITUPSAT 1 23 May 16:14:25 16:17:11 15° 298° (WNW) 16:19:46 437.325
O/OREOS (USA 219) 23 May 16:21:44 16:26:04 48° 109° (ESE) 16:30:26 437.305
BEESAT 23 May 16:25:32 16:27:23 12° 300° (WNW) 16:28:59 436.000
Cubesat XI-IV 23 May 16:33:15 16:35:01 12° 57° (ENE) 16:37:03 437.490
MOZHAYETS 4 23 May 16:54:54 16:58:59 32° 96° (E) 17:03:07
YUBILEINY 23 May 16:58:42 17:02:04 13° 51° (NE) 17:06:00 435.215
STARS 23 May 17:09:07 17:12:49 26° 293° (WNW) 17:16:25 437.465
Cosmos 2499 23 May 17:20:45 17:27:45 29° 292° (WNW) 17:34:10 435.465 / 435.565
AO-7 23 May 17:21:19 17:28:21 29° 267° (W) 17:35:11 29.400- 29.500
JAS-2 23 May 17:22:21 17:27:15 20° 270° (W) 17:31:33 435.910
KKS-1 23 May 17:33:41 17:34:56 11° 300° (WNW) 17:35:58 437.445
RS-15 23 May 17:44:49 17:56:05 56° 44° (NE) 18:07:53 29.354- 29.394
CUTE-I 23 May 17:49:51 17:54:58 52° 71° (ENE) 18:00:09 437.470
O/OREOS (USA 219) 23 May 18:02:24 18:05:48 20° 307° (NW) 18:09:06 437.305
Cubesat XI-IV 23 May 18:09:03 18:14:20 78° 75° (ENE) 18:19:42 437.490
HO-68 23 May 18:21:39 18:24:07 12° 48° (NE) 18:26:59 435.675
CUBESAT XI-V 23 May 18:22:53 18:26:35 23° 92° (E) 18:30:24 437.345
MOZHAYETS 4 23 May 18:32:16 18:36:08 27° 292° (WNW) 18:39:53
BEESAT 3 23 May 18:45:30 18:49:12 34° 117° (ESE) 18:52:58 437.485
YUBILEINY 23 May 18:52:39 19:01:17 62° 77° (ENE) 19:09:52 435.215
AIST 2 23 May 18:56:56 18:58:07 11° 109° (ESE) 18:59:32 435.215
Cosmos 2491 23 May 18:57:05 19:04:24 32° 84° (E) 19:11:58 435.465 / 435.565
BEESAT 2 23 May 19:28:33 19:32:39 80° 123° (ESE) 19:36:49 435.950
CUTE-I 23 May 19:31:23 19:35:25 21° 269° (W) 19:39:20 437.470
COMPASS 1 23 May 19:36:31 19:37:48 11° 63° (ENE) 19:39:17 437.405
BRITE-PL 23 May 19:43:35 19:48:26 54° 72° (ENE) 19:53:44 437.365/2234.400
STRAND 1 23 May 19:45:20 19:50:26 61° 101° (E) 19:55:32 437.568
DOVE 4 23 May 19:47:55 19:52:10 28° 66° (ENE) 19:56:39 437.250
PRISM 23 May 19:49:02 19:53:12 83° 103° (ESE) 19:57:22 437.425
AAUSAT CUBESAT 2 23 May 19:51:04 19:53:11 14° 64° (ENE) 19:55:28 437.432
Cubesat XI-IV 23 May 19:52:21 19:55:10 14° 273° (W) 19:57:43 437.490
CINEMA 3 23 May 19:55:18 19:58:26 17° 63° (ENE) 20:01:46 145.822/145.860
RS-15 23 May 19:57:32 20:08:38 51° 247° (WSW) 20:20:01 29.354- 29.394
CUBESAT XI-V 23 May 19:59:49 20:04:11 38° 289° (WNW) 20:08:30 437.345
HO-68 23 May 20:03:32 20:10:30 57° 68° (ENE) 20:17:31 435.675
GOMX 1 23 May 20:05:33 20:10:30 58° 72° (ENE) 20:15:47 467.674
CANX-2 23 May 20:16:45 20:20:52 49° 73° (ENE) 20:25:01 2200.000
Oscar 11 23 May 20:16:49 20:18:52 14° 63° (ENE) 20:21:06 145.826/435.025
M-CUBED/EXP-1 PRIME 23 May 20:20:29 20:23:51 73° 108° (ESE) 20:27:07 437.505
CUTE 1.7 + AOD 2 23 May 20:20:54 20:25:01 49° 73° (ENE) 20:29:10 437.475
BEESAT 3 23 May 20:23:43 20:27:15 27° 315° (NW) 20:30:47 437.485
UWE-3 23 May 20:31:41 20:34:24 16° 63° (ENE) 20:37:17 435.000/436.395/437.385
AIST 2 23 May 20:31:53 20:36:08 79° 303° (WNW) 20:40:28 435.215
AUBIESAT-1 23 May 20:32:19 20:35:40 90° 35° (NE) 20:38:58 437.475
AIST 1 23 May 20:34:37 20:38:04 25° 90° (E) 20:41:38
Cosmos 2504 23 May 20:37:03 20:43:01 27° 66° (ENE) 20:49:04 435.465 / 435.565
DELFI C3 23 May 20:43:10 20:45:44 17° 66° (ENE) 20:48:24 145.870
SEEDS 23 May 20:49:23 20:53:37 84° 77° (ENE) 20:57:52 437.485
YUBILEINY 23 May 20:50:19 20:57:36 30° 276° (W) 21:04:39 435.215
FUNcube-1 23 May 20:51:30 20:54:37 19° 65° (ENE) 20:57:52 145.935
Cosmos 2491 23 May 20:52:10 21:00:51 59° 284° (WNW) 21:09:34 435.465 / 435.565
BEESAT 2 23 May 21:08:44 21:11:18 15° 323° (NW) 21:13:47 435.950
COMPASS 1 23 May 21:08:46 21:12:58 74° 258° (WSW) 21:17:10 437.405
CUBEBUG 2 23 May 21:10:39 21:15:09 44° 72° (ENE) 21:19:44 437.445
BRITE-PL 23 May 21:23:44 21:27:26 20° 272° (W) 21:31:10 437.365/2234.400
AAUSAT CUBESAT 2 23 May 21:24:16 21:28:23 57° 260° (W) 21:32:30 437.432
DOVE 4 23 May 21:25:00 21:29:44 40° 264° (W) 21:34:40 437.250
STRAND 1 23 May 21:25:37 21:29:13 19° 298° (WNW) 21:32:39 437.568
PRISM 23 May 21:27:25 21:28:05 10° 299° (WNW) 21:28:32 437.425
ZACube-1 23 May 21:28:58 21:33:19 43° 71° (ENE) 21:37:42 437.345
CINEMA 3 23 May 21:30:13 21:35:08 65° 260° (W) 21:40:10 145.822/145.860
UKube-1 23 May 21:39:31 21:43:09 27° 67° (ENE) 21:46:51 .
DX 1 23 May 21:42:29 21:46:17 31° 69° (ENE) 21:50:12 434.975-435.025
VELOX 1 23 May 21:43:15 21:46:03 17° 64° (ENE) 21:48:59 145.980
GOMX 1 23 May 21:45:30 21:49:07 19° 272° (W) 21:52:43 467.674
Oscar 11 23 May 21:50:15 21:54:35 65° 259° (W) 21:58:54 145.826/435.025
HO-68 23 May 21:52:26 21:58:39 30° 267° (W) 22:04:42 435.675
HUMSAT D 23 May 21:54:02 21:57:59 36° 71° (ENE) 22:01:59 437.325/437.525
CUBEBUG 1 23 May 21:54:07 21:55:13 11° 61° (ENE) 21:56:34 437.445
CANX-2 23 May 21:54:29 21:57:08 15° 270° (W) 21:59:38 2200.000
CUTE 1.7 + AOD 2 23 May 21:58:38 22:01:16 15° 270° (W) 22:03:45 437.475
UWE-3 23 May 22:05:48 22:10:28 64° 259° (W) 22:15:09 435.000/436.395/437.385
50 SAT 23 May 22:07:22 22:10:47 28° 70° (ENE) 22:14:16 437.505
AIST 1 23 May 22:12:00 22:15:40 27° 287° (WNW) 22:19:19
AISAT 23 May 22:12:09 22:16:06 33° 69° (ENE) 22:20:09 437.250
AIST 2 23 May 22:13:12 22:15:29 14° 325° (NW) 22:17:38 435.215
DELFI C3 23 May 22:16:42 22:20:33 42° 262° (W) 22:24:25 145.870
CUSAT 1 23 May 22:22:40 22:24:22 11° 46° (NE) 22:26:27 437.405
FUNcube-1 23 May 22:26:08 22:30:36 50° 261° (W) 22:35:05 145.935
Cosmos 2504 23 May 22:29:51 22:36:56 56° 268° (W) 22:43:52 435.465 / 435.565
TIGRISAT 23 May 22:32:48 22:35:49 18° 90° (E) 22:38:54 435.000
QB50P2 23 May 22:42:13 22:42:52 10° 87° (E) 22:43:48 145.880/145.840
SPROUT 23 May 22:47:08 22:48:21 11° 61° (ENE) 22:49:48 437.525
CUBEBUG 2 23 May 22:48:24 22:52:05 21° 269° (W) 22:55:39 437.445
UNISAT 6 23 May 22:50:59 22:54:50 29° 95° (E) 22:58:39 437.425
POPSAT HIP 1 23 May 22:54:04 22:56:19 14° 89° (E) 22:58:44 437.405
Cosmos 2491 23 May 22:56:30 23:00:14 12° 310° (NW) 23:03:22 435.465 / 435.565
DUCHIFAT 1 23 May 22:58:51 23:01:23 16° 90° (E) 23:04:04 145.980
ESTCUBE 1 23 May 23:06:08 23:10:35 69° 74° (ENE) 23:15:04 437.505/2401.250
DANDE 23 May 23:06:20 23:11:54 20° 55° (NE) 23:17:13 436.750
ZACube-1 23 May 23:06:26 23:09:54 20° 269° (W) 23:13:15 437.345
UKube-1 23 May 23:15:27 23:19:14 29° 264° (W) 23:23:00 .
VELOX 1 23 May 23:17:54 23:22:14 52° 260° (W) 23:26:36 145.980
DX 1 23 May 23:18:56 23:22:35 25° 266° (W) 23:26:11 434.975-435.025
GONETS M04 23 May 23:21:16 23:27:57 24° 61° (ENE) 23:34:54
TISAT 1 23 May 23:22:51 23:25:51 20° 66° (ENE) 23:28:59 437.305
CUBEBUG 1 23 May 23:26:38 23:30:59 83° 255° (WSW) 23:35:24 437.445
HUMSAT D 23 May 23:30:29 23:33:52 21° 268° (W) 23:37:09 437.325/437.525
ANTELSAT 23 May 23:33:49 23:38:17 85° 103° (ESE) 23:42:37 437.575/2403.000
POLYITAN 1 23 May 23:37:06 23:41:11 42° 98° (E) 23:45:16 437.675
QB50P1 23 May 23:37:10 23:41:14 41° 98° (E) 23:45:19 145.935-145.965
BUGSAT 1 23 May 23:37:40 23:41:23 29° 95° (E) 23:45:07 437.445
50 SAT 23 May 23:42:12 23:45:31 24° 266° (W) 23:48:44 437.505
AISAT 23 May 23:49:04 23:52:45 25° 266° (W) 23:56:24 437.250
CUSAT 1 24 May 00:02:00 00:09:32 51° 71° (ENE) 00:15:37 437.405
TIGRISAT 24 May 00:08:37 00:12:50 43° 289° (WNW) 00:16:56 435.000
ITUPSAT 1 24 May 00:08:47 00:10:24 12° 60° (ENE) 00:12:15 437.325
NANOSAT C BR1 24 May 00:09:46 00:14:05 86° 284° (WNW) 00:18:21 145.865
QB50P2 24 May 00:15:05 00:19:23 73° 285° (WNW) 00:23:38 145.880/145.840
ISS 24 May 00:16:59 00:19:23 19° 135° (SE) 00:21:51 145.825
BEESAT 24 May 00:17:48 00:20:20 15° 62° (ENE) 00:23:04 436.000
SPROUT 24 May 00:19:32 00:23:51 80° 257° (WSW) 00:28:13 437.525
SWISSCUBE 24 May 00:24:58 00:28:09 19° 64° (ENE) 00:31:29 437.505
UNISAT 6 24 May 00:27:47 00:31:35 27° 292° (WNW) 00:35:14 437.425
POPSAT HIP 1 24 May 00:28:22 00:32:35 54° 287° (WNW) 00:36:44 437.405
DUCHIFAT 1 24 May 00:33:22 00:37:31 48° 288° (WNW) 00:41:37 145.980
ESTCUBE 1 24 May 00:46:09 00:48:01 12° 273° (W) 00:49:40 437.505/2401.250
DANDE 24 May 00:48:24 00:56:46 84° 79° (E) 01:03:31 436.750
O/OREOS (USA 219) 24 May 00:52:28 00:54:53 14° 49° (NE) 00:57:27 437.305
Oscar 19 24 May 00:56:04 00:57:17 11° 85° (E) 00:58:51 437.125/150
TISAT 1 24 May 00:57:22 01:01:23 40° 262° (W) 01:05:25 437.305
ANTELSAT 24 May 01:13:09 01:14:26 11° 300° (WNW) 01:15:29 437.575/2403.000
BUGSAT 1 24 May 01:13:09 01:16:48 27° 292° (WNW) 01:20:21 437.445
POLYITAN 1 24 May 01:13:43 01:16:50 19° 295° (WNW) 01:19:49 437.675
QB50P1 24 May 01:13:43 01:16:51 19° 294° (WNW) 01:19:51 145.935-145.965
Cosmos 2499 24 May 01:16:51 01:21:39 20° 62° (ENE) 01:26:42 435.465 / 435.565
GONETS M04 24 May 01:17:10 01:26:00 79° 264° (W) 01:34:42
KKS-1 24 May 01:20:47 01:21:55 11° 60° (ENE) 01:23:17 437.445
ITUPSAT 1 24 May 01:42:53 01:47:39 89° 242° (WSW) 01:52:27 437.325
CUSAT 1 24 May 01:45:18 01:51:50 31° 275° (W) 01:57:09 437.405
PCSat 24 May 01:48:52 01:54:12 65° 117° (ESE) 01:59:36 145.827
ISS 24 May 01:52:22 01:55:34 57° 331° (NNW) 01:58:48 145.825
BEESAT 24 May 01:52:56 01:57:41 70° 257° (WSW) 02:02:28 436.000
SWISSCUBE 24 May 02:01:00 02:05:39 54° 260° (W) 02:10:19 437.505
BEESAT 2 24 May 02:10:26 02:11:59 12° 34° (NNE) 02:13:39 435.950
O/OREOS (USA 219) 24 May 02:30:25 02:34:54 72° 249° (WSW) 02:39:20 437.305
STARS 24 May 02:30:27 02:34:26 34° 69° (ENE) 02:38:29 437.465
Oscar 19 24 May 02:32:18 02:37:31 90° 75° (ENE) 02:42:40 437.125/150
DANDE 24 May 02:33:14 02:38:51 20° 280° (W) 02:43:32 436.750
ITAMSAT 1 24 May 02:38:51 02:43:28 32° 95° (E) 02:48:08 435.822/435.867
KKS-1 24 May 02:53:26 02:57:55 88° 256° (WSW) 03:02:27 437.445
Gurwin Techsat 1B 24 May 02:55:55 03:00:59 43° 98° (E) 03:06:02 435.225
BEESAT 3 24 May 03:02:56 03:06:39 32° 47° (NE) 03:10:20 437.485
Cosmos 2499 24 May 03:08:41 03:15:46 77° 264° (W) 03:22:51 435.465 / 435.565
AIST 2 24 May 03:15:13 03:17:42 15° 36° (NE) 03:20:18 435.215
GONETS M04 24 May 03:16:33 03:21:32 16° 283° (WNW) 03:25:57
VERMONT LUNAR 24 May 03:22:46 03:25:05 19° 156° (SSE) 03:27:26 437.305
SO-50 24 May 03:23:52 03:27:25 22° 112° (ESE) 03:31:11 436.795
AO-7 24 May 03:28:28 03:33:46 19° 88° (E) 03:39:30 29.400- 29.500
ISS 24 May 03:29:54 03:32:29 21° 351° (N) 03:35:03 145.825
PCSat 24 May 03:33:46 03:38:08 24° 317° (NW) 03:42:26 145.827
HORYU 2 24 May 03:36:39 03:39:32 17° 91° (E) 03:42:33 437.375
BEESAT 2 24 May 03:46:46 03:50:53 70° 54° (NE) 03:54:56 435.950
MOZHAYETS 4 24 May 03:57:56 04:02:05 35° 70° (ENE) 04:06:17
STARS 24 May 04:07:18 04:10:57 24° 266° (W) 04:14:34 437.465
